Temperature
30 31 31 31 31 32 32 31 30 29 28 28 29 29 29 29 28 28 27 26 25 25 24 24 23 23 23 22 22 21 21 20 20 20 20 20 20 19 19 19 19 19 19 18
29 31 31 31 31 32 32 32 31 29 28 29 29 28 28 28 27 27 26 25 25 24 24 23 23 23 22 22 21 21 21 20 20 19 19 19 19 19 19 19 19 18 18 18
28 29 30 29 30 31 31 32 31 29 29 28 28 27 27 27 26 26 25 25 24 23 23 23 23 22 22 21 21 20 20 20 19 19 19 19 19 19 19 19 19 18 18 18
28 28 27 29 31 31 31 31 31 30 29 28 27 26 26 26 25 24 24 23 23 22 22 22 22 22 21 21 20 20 20 20 19 19 19 18 18 18 18 18 18 18 18 18
27 27 27 29 30 30 30 29 30 30 29 27 26 26 25 25 24 23 23 22 22 22 22 22 21 21 21 20 20 20 19 19 19 19 19 18 18 18 18 18 18 18 18 18
27 26 26 27 29 30 30 28 29 28 27 26 26 25 24 23 23 22 22 22 21 21 21 21 20 20 20 20 19 19 19 19 19 19 18 18 18 18 18 18 17 17 18 18
26 26 26 27 28 29 27 25 26 26 25 25 24 24 23 23 22 22 21 21 21 20 20 20 20 20 19 19 19 19 19 18 18 18 18 18 17 17 17 17 17 17 17 17
26 25 25 26 27 25 23 24 24 24 24 23 22 22 22 21 21 21 20 20 20 20 19 19 19 19 19 18 18 18 18 18 18 18 17 17 17 17 17 17 17 17 17 17
24 24 24 24 23 23 23 23 23 23 22 22 22 21 21 20 20 20 20 20 19 19 19 18 18 18 18 18 18 18 17 17 17 17 17 17 17 17 16 16 16 16 16 16
24 23 23 23 22 22 22 22 22 22 21 21 21 20 20 19 19 19 19 19 19 18 18 17 17 17 17 17 17 17 17 17 17 16 16 16 16 16 16 16 16 16 16 16
23 22 22 22 22 22 22 21 21 21 21 20 20 19 19 18 18 18 18 18 18 17 17 17 17 17 17 16 16 16 16 16 16 16 16 16 16 16 16 16 16 16 16 16
22 22 22 21 21 21 21 20 20 20 20 19 19 18 18 18 17 17 17 17 17 17 17 16 16 16 16 16 16 16 16 15 15 15 15 15 15 15 15 15 15 16 16 16
21 21 21 20 20 20 20 20 19 19 19 18 18 18 17 17 17 16 16 16 16 16 16 16 16 16 16 15 15 15 15 15 15 15 15 15 15 15 15 15 15 15 15 15
20 20 20 19 20 19 19 19 19 18 18 18 17 17 17 16 16 16 16 15 15 15 15 15 15 15 15 15 15 15 15 15 15 15 15 15 15 15 15 15 15 15 14 14
19 19 19 19 19 19 18 18 18 18 17 17 16 16 16 15 15 15 15 15 15 15 14 14 14 14 14 14 14 14 14 15 15 15 14 14 14 14 14 14 14 14 14 14
18 18 18 18 18 18 18 18 17 17 16 16 16 15 15 15 14 14 14 14 14 14 14 14 14 14 14 14 14 14 14 14 14 14 14 14 14 14 14 14 14 14 14 14
18 18 18 17 17 17 17 17 16 16 16 15 15 15 14 14 14 14 14 14 14 13 13 13 13 13 13 13 14 14 14 14 14 14 14 14 14 14 14 14 13 13 13 13
17 17 17 17 17 16 16 16 16 15 15 15 14 14 14 14 13 13 13 13 13 13 13 13 13 13 13 13 13 13 13 14 14 14 14 13 13 13 13 13 13 13 13 13
17 17 16 16 16 16 16 15 15 15 14 14 14 13 13 13 13 13 12 12 12 12 12 12 12 12 13 13 13 13 13 14 14 14 13 13 13 13 13 13 13 13 13 13
16 16 16 16 16 15 15 15 15 14 14 13 13 13 13 12 12 12 12 12 12 12 12 12 12 12 12 12 13 13 13 13 13 13 13 13 13 13 13 13 13 13 12 12
16 16 15 15 15 15 14 14 14 14 13 13 13 13 12 12 12 12 12 12 12 12 12 12 12 12 12 12 12 12 12 13 13 13 13 13 13 12 12 12 12 12 12 12
15 15 15 15 14 14 14 13 13 13 13 13 12 12 12 12 12 12 12 12 11 11 11 11 11 11 11 12 12 12 12 12 12 12 12 12 12 12 12 12 12 12 11 11
14 14 14 14 14 13 13 13 13 13 13 12 12 12 12 12 12 12 12 11 11 11 11 11 11 11 11 11 11 11 11 12 12 12 11 11 11 11 11 11 11 11 11 11
14 14 13 13 13 13 13 13 13 13 12 12 12 12 12 12 12 12 12 11 11 11 11 11 11 11 11 11 11 11 11 11 11 11 11 11 11 11 11 11 11 11 11 11
13 13 13 13 13 13 13 13 13 13 13 12 12 12 12 12 12 12 11 11 11 11 11 11 10 10 10 10 10 10 10 10 10 10 10 10 10 10 10 10 10 10 10 10
13 13 13 13 13 13 13 13 13 13 13 12 12 12 12 11 11 11 11 11 11 11 10 10 10 10 10 10 10 10 10 10 10 10 10 10 10 10 10 10 10 10 10 10
13 13 13 13 13 13 13 13 13 12 12 12 12 11 11 11 11 11 11 11 11 10 10 10 10 10 10 10 10 10 10 10 10 9 9 9 9 9 9 9 9 9 9 9
Wind_Speed
16 14 12 12 14 15 14 14 10 5 3 5 4 1 2 6 7 8 8 7 7 7 6 6 6 5 5 6 6 6 7 8 7 6 5 5 5 5 5 5 6 5 5 4
15 16 15 13 14 14 14 13 9 7 5 4 3 3 4 5 5 6 7 6 6 6 6 5 5 4 4 4 4 5 5 6 5 5 5 5 5 5 5 5 5 4 5 5
14 15 15 15 13 12 12 11 7 7 4 4 2 3 4 6 6 6 6 6 4 4 5 5 5 4 4 3 4 4 4 4 4 5 5 5 6 5 5 5 5 5 5 5
12 13 16 11 10 11 11 8 5 3 6 7 5 5 5 7 7 7 7 6 4 3 3 4 4 4 4 4 4 4 4 4 4 5 5 5 5 5 5 5 5 5 6 6
10 13 13 10 8 8 8 5 3 3 7 8 6 6 6 7 8 7 6 5 4 3 2 3 3 3 2 3 4 4 4 4 4 5 5 5 5 5 4 4 5 5 5 6
11 12 12 7 6 5 6 6 1 3 6 6 4 3 4 6 6 6 5 4 3 3 3 3 2 2 2 2 2 1 2 2 3 3 4 4 5 5 4 4 4 4 5 5
13 12 7 4 4 4 5 1 4 5 7 6 2 3 5 7 6 5 5 4 4 3 3 2 2 2 2 1 1 0 1 1 1 2 3 4 4 4 4 4 5 5 5 5
10 11 5 6 3 2 4 6 7 8 9 9 8 8 6 6 6 5 5 4 3 3 3 2 2 1 1 1 0 0 0 1 1 1 3 4 3 4 4 5 6 6 6 6
2 1 5 8 8 6 6 6 6 7 8 7 8 7 6 5 5 4 4 3 3 3 2 2 2 1 0 0 1 0 0 1 1 1 2 2 4 4 5 5 6 5 5 5
2 4 6 7 7 6 6 5 6 6 6 6 7 6 5 4 4 3 3 3 3 2 2 2 2 1 1 1 0 1 1 2 2 2 2 2 3 4 4 4 5 5 5 5
3 4 4 5 5 5 6 6 6 6 6 7 6 6 5 4 4 4 4 3 2 1 1 1 1 1 1 1 0 1 2 3 3 3 3 3 3 3 4 4 5 5 5 4
2 3 3 5 4 5 6 6 6 6 7 6 5 5 4 4 3 3 3 3 3 2 2 2 1 1 2 1 1 2 3 3 3 3 3 4 4 3 3 4 4 5 6 6
4 4 6 5 5 5 5 6 5 6 6 5 5 4 4 4 3 3 3 3 3 3 2 2 2 2 2 2 1 2 3 3 4 4 4 4 4 4 4 3 3 4 5 5
6 6 7 5 4 5 5 6 5 6 6 5 5 4 4 4 4 4 5 4 4 3 3 3 3 3 3 3 2 3 4 4 4 3 3 4 4 4 4 3 2 2 3 4
4 5 5 5 5 6 5 5 5 5 5 5 5 5 5 5 5 5 4 4 4 3 3 3 3 4 3 4 3 3 3 3 3 2 3 3 3 3 3 3 3 3 2 2
4 5 5 5 5 5 5 5 5 5 4 4 4 5 5 5 5 5 5 4 4 4 4 3 3 4 4 4 4 3 3 3 3 3 3 3 3 3 3 3 3 3 3 2
4 4 4 4 4 4 5 5 4 4 4 4 5 5 5 5 5 4 5 5 4 4 4 4 4 5 5 4 5 4 4 3 4 4 4 4 3 3 3 4 4 3 3 3
4 4 3 4 4 4 3 3 3 4 4 5 5 5 5 5 6 5 5 5 5 5 5 5 5 6 5 5 5 5 4 4 3 3 3 3 3 3 4 4 4 4 3 3
4 4 4 4 4 3 3 2 3 3 3 4 4 4 5 5 6 5 5 5 5 5 6 6 6 6 6 6 6 5 5 4 3 2 3 3 3 4 4 4 4 4 3 1
4 4 3 3 3 3 2 2 3 3 3 3 3 4 4 5 4 4 4 4 5 5 5 6 5 5 6 6 7 6 6 5 4 3 3 3 3 3 3 4 3 3 2 2
3 3 2 2 2 1 2 2 2 2 2 3 3 3 3 4 4 4 4 4 4 4 5 6 4 5 5 6 7 6 6 5 5 4 4 4 3 3 2 2 2 2 2 2
2 2 2 2 1 1 1 1 1 2 3 3 3 2 2 3 3 3 3 2 3 4 5 5 4 6 7 7 6 6 5 5 4 4 3 3 3 3 3 2 2 2 2 2
2 2 2 2 1 1 1 1 1 2 2 2 2 2 3 2 3 3 3 2 3 4 4 4 5 7 8 6 5 5 5 4 4 4 4 3 3 3 3 3 2 3 3 3
3 2 2 1 0 0 1 2 2 2 2 3 2 2 2 2 2 2 2 2 3 3 4 3 4 6 7 5 4 4 5 4 4 4 4 3 3 3 3 3 2 3 3 4
3 2 1 0 1 1 1 1 2 2 2 1 2 2 2 2 2 3 3 3 3 3 4 3 4 6 5 5 5 4 4 4 4 4 4 4 4 3 3 3 4 4 3 3
2 1 1 1 1 2 2 2 2 1 2 2 2 2 3 2 2 2 1 2 3 2 3 3 3 4 4 5 5 6 5 5 4 4 5 4 5 5 4 4 5 4 4 4
2 2 1 1 1 1 2 2 2 2 2 2 3 3 3 3 3 3 3 3 3 3 3 4 4 4 4 5 6 6 6 6 5 5 5 5 5 4 5 5 4 4 5 6
Wind_Direction
260 260 254 251 245 244 246 254 260 242 216 200 197 194 117 115 126 134 134 137 138 145 149 152 149 144 153 167 172 177 177 183 184 187 189 190 191 191 192 199 204 199 205 213
257 259 257 252 250 247 245 250 240 219 222 190 178 147 125 123 134 138 137 138 144 142 137 136 135 144 153 167 160 153 170 180 175 182 190 196 196 193 192 203 209 202 206 215
255 251 252 248 247 248 251 252 241 223 201 151 173 119 117 120 125 127 119 115 104 116 126 132 143 147 161 163 150 156 171 177 174 186 200 206 210 201 200 206 209 211 219 219
257 255 250 248 252 249 246 247 249 182 146 147 165 127 105 109 110 108 111 109 102 107 118 134 139 150 155 162 166 171 179 189 190 191 204 208 215 213 212 211 213 216 223 224
252 251 251 250 248 250 251 247 269 163 142 132 129 122 114 106 103 101 100 95 99 105 105 103 111 113 129 161 169 180 192 199 198 197 202 205 215 220 222 220 220 222 226 225
246 251 253 261 281 281 254 217 141 114 113 116 141 157 131 108 102 107 103 98 93 85 81 83 92 117 122 140 156 196 219 218 202 195 205 216 224 225 227 225 229 234 237 233
243 248 250 324 320 299 248 290 59 88 96 103 90 67 115 119 107 98 99 93 87 80 74 71 75 100 138 161 168 249 290 252 222 205 212 220 222 220 225 229 230 234 238 240
238 245 242 360 24 39 66 51 60 69 80 86 88 89 89 93 94 88 88 86 82 76 74 77 80 96 151 178 176 58 210 241 239 232 243 238 215 216 221 230 235 238 237 242
245 197 78 57 66 74 80 76 74 75 78 85 97 97 94 83 77 84 78 68 73 66 55 46 63 84 93 35 70 62 187 218 225 219 234 236 226 227 231 232 237 237 235 239
128 99 82 74 66 65 73 83 87 86 94 91 101 98 88 73 59 53 58 47 53 67 48 26 31 45 39 350 188 205 230 225 222 219 238 257 251 240 239 240 240 242 240 237
135 129 114 98 88 85 74 75 77 80 88 91 91 83 77 67 51 36 28 24 19 21 17 355 7 3 352 343 284 257 263 253 240 237 236 238 245 253 251 248 237 238 248 243
172 152 137 114 90 88 84 75 71 77 83 83 82 73 60 49 42 29 13 5 359 352 340 336 344 337 322 305 259 269 270 261 253 251 245 238 232 244 264 245 240 236 243 236
89 101 100 97 90 87 88 93 89 84 82 77 67 65 53 41 28 20 6 1 2 359 351 346 343 339 326 319 289 268 273 270 266 264 258 251 244 240 247 250 244 242 241 234
72 92 100 93 92 92 92 90 85 80 73 66 60 48 41 29 19 11 3 0 358 358 351 349 351 348 347 335 298 274 274 276 269 265 269 263 260 261 258 254 256 259 242 215
83 91 96 96 97 93 87 82 82 76 64 50 46 34 23 17 8 3 359 351 359 354 347 346 350 349 350 336 322 306 293 289 290 288 283 273 263 262 265 264 257 252 254 215
99 97 100 101 97 92 83 77 70 62 53 42 32 26 17 13 6 358 355 353 354 349 351 353 347 339 334 327 321 307 294 283 275 275 273 270 269 265 260 254 254 246 245 227
123 123 119 111 99 86 73 66 62 52 37 31 27 19 11 7 6 360 357 358 1 6 5 0 346 332 322 317 305 295 296 287 272 272 269 268 269 269 265 261 261 258 247 219
129 126 118 111 107 93 75 64 62 54 33 29 27 21 12 12 6 359 1 4 8 9 2 353 347 333 324 321 310 293 289 285 284 285 290 292 288 279 273 267 261 260 250 226
119 112 108 105 105 98 83 59 49 45 37 33 26 21 17 16 9 2 1 357 358 353 352 348 335 326 320 327 322 303 292 284 277 292 301 300 292 292 287 282 278 277 278 249
116 119 113 103 100 87 69 48 43 36 27 24 17 12 16 9 358 358 1 2 2 352 345 339 335 330 325 333 322 305 301 301 297 294 288 279 282 290 295 294 296 298 289 274
125 128 123 117 99 73 57 41 35 17 5 2 4 3 3 355 349 349 348 351 7 0 338 327 334 341 340 334 316 308 306 312 315 314 317 312 308 308 310 311 313 313 311 297
127 119 115 110 105 82 49 28 24 11 5 0 359 0 355 346 338 339 351 345 347 1 341 333 347 351 345 332 322 318 318 320 326 331 334 332 326 324 328 330 325 320 317 308
100 89 80 73 69 53 358 345 351 1 347 338 331 318 311 313 316 322 335 356 353 347 337 350 358 346 333 326 323 324 326 329 331 332 330 323 319 321 324 324 327 328 331 325
99 89 78 66 32 312 317 321 335 331 317 300 303 313 310 315 319 328 354 26 20 4 347 349 333 325 318 324 327 328 328 327 326 319 317 321 323 323 326 330 327 320 323 323
106 101 86 342 279 272 246 262 267 273 294 321 345 6 355 347 344 359 18 19 28 5 343 335 309 307 311 323 333 335 329 331 330 328 330 333 331 332 338 346 344 334 330 327
121 139 113 305 305 293 290 299 312 346 4 12 8 0 3 359 351 357 354 341 345 337 332 335 331 315 325 335 343 349 348 340 329 340 351 352 349 348 351 353 348 347 344 346
158 143 162 254 292 319 336 349 357 11 19 13 8 8 4 4 10 13 4 351 344 338 341 343 346 347 349 351 353 358 359 360 1 6 6 4 1 357 356 2 5 15 17 19
Height
1448 1443 1442 1445 1446 1445 1449 1451 1460 1464 1468 1467 1463 1465 1467 1468 1472 1476 1480 1484 1487 1491 1493 1496 1499 1501 1504 1506 1508 1510 1511 1513 1515 1516 1517 1518 1519 1520 1521 1522 1523 1524 1524 1525
1452 1444 1442 1446 1445 1444 1445 1446 1452 1458 1464 1462 1463 1465 1467 1470 1474 1477 1480 1484 1487 1490 1492 1495 1497 1499 1502 1504 1506 1508 1509 1511 1512 1514 1515 1516 1517 1518 1518 1519 1520 1521 1521 1522
1458 1449 1448 1454 1446 1445 1445 1442 1447 1459 1460 1460 1464 1467 1469 1472 1475 1478 1481 1484 1486 1489 1491 1493 1496 1498 1500 1502 1504 1505 1507 1508 1510 1511 1512 1513 1514 1515 1515 1516 1516 1517 1518 1518
1456 1458 1470 1451 1437 1437 1440 1441 1443 1449 1455 1460 1465 1469 1472 1474 1477 1480 1483 1485 1488 1489 1491 1493 1495 1497 1499 1500 1502 1503 1504 1505 1507 1507 1509 1510 1511 1511 1512 1512 1513 1513 1514 1515
1458 1462 1459 1447 1439 1440 1444 1448 1446 1450 1455 1461 1466 1469 1473 1476 1479 1482 1484 1486 1488 1490 1491 1493 1494 1496 1497 1498 1500 1501 1502 1503 1504 1505 1505 1506 1507 1507 1508 1509 1509 1510 1510 1511
1457 1466 1468 1454 1442 1440 1444 1454 1451 1453 1457 1462 1466 1470 1476 1478 1480 1483 1485 1487 1488 1490 1491 1492 1494 1495 1495 1497 1497 1498 1499 1500 1501 1502 1503 1503 1503 1504 1504 1505 1505 1506 1506 1507
1457 1461 1458 1449 1445 1444 1460 1465 1457 1457 1460 1465 1468 1472 1477 1478 1481 1483 1485 1487 1489 1490 1491 1492 1492 1493 1494 1494 1495 1496 1496 1497 1498 1498 1499 1499 1500 1500 1500 1501 1501 1501 1502 1502
1456 1462 1466 1452 1449 1456 1464 1462 1462 1463 1465 1469 1471 1473 1477 1479 1482 1484 1486 1487 1488 1489 1490 1491 1491 1491 1492 1492 1493 1493 1493 1494 1494 1495 1496 1496 1496 1496 1496 1497 1497 1497 1497 1498
1456 1461 1459 1458 1459 1462 1463 1465 1467 1468 1469 1472 1474 1476 1479 1481 1483 1484 1486 1487 1487 1488 1489 1490 1490 1490 1490 1490 1490 1490 1490 1490 1491 1491 1492 1492 1492 1492 1492 1493 1493 1493 1493 1493
1456 1459 1460 1462 1464 1466 1467 1469 1469 1470 1472 1474 1476 1478 1480 1482 1483 1485 1485 1486 1486 1487 1487 1487 1487 1487 1487 1487 1487 1487 1487 1487 1487 1488 1488 1489 1489 1489 1489 1489 1489 1489 1489 1489
1458 1462 1463 1465 1467 1468 1470 1470 1471 1472 1474 1476 1478 1480 1481 1482 1483 1484 1485 1485 1486 1486 1486 1486 1486 1485 1485 1485 1484 1484 1484 1483 1484 1484 1484 1485 1485 1485 1485 1485 1485 1485 1485 1485
1460 1462 1462 1466 1468 1469 1471 1473 1474 1475 1477 1478 1480 1481 1482 1483 1484 1484 1484 1484 1484 1484 1484 1484 1483 1483 1482 1482 1482 1481 1480 1480 1481 1481 1481 1482 1482 1481 1481 1481 1481 1481 1481 1481
1462 1463 1465 1467 1469 1471 1473 1475 1476 1478 1479 1480 1481 1482 1483 1483 1483 1483 1483 1483 1482 1482 1482 1481 1481 1480 1480 1479 1479 1479 1478 1477 1478 1478 1478 1478 1478 1478 1477 1477 1476 1476 1476 1476
1465 1466 1467 1470 1471 1473 1475 1477 1478 1479 1481 1482 1482 1483 1483 1483 1483 1483 1482 1482 1481 1480 1480 1479 1479 1478 1478 1477 1477 1476 1476 1475 1475 1475 1475 1475 1474 1474 1473 1473 1472 1471 1471 1471
1468 1469 1470 1472 1474 1476 1477 1478 1480 1481 1481 1482 1483 1483 1483 1483 1483 1482 1482 1481 1480 1479 1478 1477 1477 1476 1476 1475 1474 1473 1473 1472 1472 1471 1471 1471 1470 1470 1469 1469 1468 1467 1467 1466
1469 1471 1472 1474 1475 1477 1478 1480 1481 1481 1482 1483 1483 1483 1483 1483 1482 1482 1481 1480 1479 1478 1477 1476 1475 1474 1474 1473 1472 1471 1470 1470 1469 1469 1468 1468 1467 1467 1466 1465 1464 1464 1463 1463
1471 1473 1474 1476 1477 1479 1480 1481 1482 1483 1483 1483 1483 1483 1483 1482 1481 1481 1480 1479 1478 1477 1476 1475 1474 1473 1472 1471 1470 1469 1469 1468 1467 1466 1465 1465 1464 1463 1462 1462 1461 1460 1460 1460
1473 1474 1476 1477 1479 1480 1481 1482 1483 1484 1484 1484 1484 1483 1482 1481 1480 1480 1479 1477 1476 1475 1474 1473 1472 1471 1470 1469 1468 1467 1467 1465 1464 1463 1462 1461 1460 1459 1459 1459 1458 1458 1457 1457
1474 1475 1477 1478 1480 1481 1482 1482 1483 1484 1484 1484 1483 1482 1482 1481 1480 1479 1477 1476 1475 1474 1473 1472 1470 1469 1467 1467 1466 1464 1464 1463 1462 1460 1460 1458 1457 1456 1456 1456 1455 1455 1455 1454
1475 1477 1478 1479 1480 1481 1482 1483 1483 1483 1484 1483 1482 1482 1481 1480 1480 1478 1476 1475 1474 1473 1472 1470 1468 1467 1466 1464 1463 1462 1461 1460 1459 1458 1457 1456 1455 1454 1453 1453 1453 1452 1452 1451
1477 1478 1479 1480 1481 1482 1482 1483 1483 1483 1483 1483 1482 1481 1480 1480 1479 1477 1476 1474 1474 1472 1470 1469 1467 1465 1464 1462 1461 1460 1459 1458 1457 1455 1454 1453 1453 1452 1451 1451 1450 1450 1449 1449
1477 1478 1479 1480 1481 1482 1482 1483 1483 1483 1483 1482 1481 1480 1479 1479 1478 1476 1475 1474 1473 1471 1469 1468 1466 1464 1462 1461 1459 1458 1457 1456 1454 1453 1452 1451 1450 1449 1449 1448 1448 1448 1447 1447
1478 1479 1479 1480 1481 1481 1482 1482 1482 1482 1481 1481 1480 1479 1478 1477 1477 1476 1474 1473 1472 1470 1468 1467 1465 1463 1461 1459 1458 1457 1455 1454 1453 1451 1451 1450 1449 1448 1447 1447 1447 1446 1445 1444
1478 1479 1479 1480 1481 1481 1481 1481 1481 1481 1480 1479 1478 1478 1477 1476 1476 1475 1474 1472 1471 1469 1468 1466 1464 1462 1460 1458 1457 1455 1454 1453 1452 1451 1450 1448 1448 1447 1446 1445 1444 1444 1443 1442
1478 1479 1479 1479 1480 1480 1480 1480 1479 1479 1478 1478 1477 1477 1476 1476 1475 1474 1473 1471 1470 1468 1467 1465 1464 1462 1459 1458 1456 1454 1453 1451 1450 1449 1448 1447 1446 1445 1444 1443 1443 1442 1440 1439
1478 1478 1479 1479 1479 1479 1479 1479 1478 1478 1478 1477 1477 1476 1476 1475 1474 1473 1472 1471 1470 1468 1467 1465 1463 1461 1459 1458 1456 1453 1452 1450 1449 1448 1446 1445 1444 1443 1442 1441 1440 1439 1438 1437
1478 1478 1479 1479 1479 1479 1479 1478 1478 1477 1477 1477 1476 1476 1475 1474 1473 1472 1471 1471 1469 1468 1467 1465 1463 1461 1459 1458 1456 1454 1452 1450 1449 1447 1446 1444 1443 1442 1441 1440 1438 1437 1436 1435